Wetterdaten: Donnerstag, 20.08.2015
Datum Zeit Temp. A. Feuchte A. Luftdruck Regen Wind Richtung Richtung Sonnenschein ET UV Solar Taupunkt Windchill Windben Empfang
20.08.2015 00:00 14,0 C 98 % 1019,7 hPa 0,0 l/m 0,0 km/h (0 Bft) NO 42 0 min 0,000 mm 0,0 UV-I 0 W/m 13,7 C 14,0 C 0,0 km/h (0 Bft) 0,00 %
20.08.2015 00:05 14,0 C 98 % 1020,0 hPa 0,0 l/m 0,0 km/h (0 Bft) NO 42 0 min 0,000 mm 0,0 UV-I 0 W/m 13,7 C 14,0 C 0,0 km/h (0 Bft) 0,00 %
20.08.2015 00:10 14,0 C 98 % 1019,9 hPa 0,0 l/m 0,0 km/h (0 Bft) N 2 0 min 0,000 mm 0,0 UV-I 0 W/m 13,7 C 14,0 C 0,0 km/h (0 Bft) 0,00 %
20.08.2015 00:15 14,0 C 98 % 1020,0 hPa 0,0 l/m 0,0 km/h (0 Bft) N-NW 348 0 min 0,000 mm 0,0 UV-I 0 W/m 13,7 C 14,0 C 0,0 km/h (0 Bft) 0,00 %
20.08.2015 00:20 14,0 C 98 % 1020,0 hPa 0,0 l/m 0,0 km/h (0 Bft) O-NO 57 0 min 0,000 mm 0,0 UV-I 0 W/m 13,7 C 14,0 C 0,0 km/h (0 Bft) 0,00 %
20.08.2015 00:25 14,0 C 98 % 1020,0 hPa 0,0 l/m 0,0 km/h (0 Bft) NO 40 0 min 0,000 mm 0,0 UV-I 0 W/m 13,7 C 14,0 C 0,0 km/h (0 Bft) 0,00 %
20.08.2015 00:30 14,0 C 98 % 1020,1 hPa 0,0 l/m 0,0 km/h (0 Bft) N 349 0 min 0,000 mm 0,0 UV-I 0 W/m 13,7 C 14,0 C 0,0 km/h (0 Bft) 0,00 %
20.08.2015 00:35 14,0 C 98 % 1020,1 hPa 0,0 l/m 0,0 km/h (0 Bft) NO 47 0 min 0,000 mm 0,0 UV-I 0 W/m 13,7 C 14,0 C 0,0 km/h (0 Bft) 0,00 %
20.08.2015 00:40 14,0 C 98 % 1020,2 hPa 0,0 l/m 0,0 km/h (0 Bft) NO 53 0 min 0,000 mm 0,0 UV-I 0 W/m 13,7 C 14,0 C 0,0 km/h (0 Bft) 0,00 %
20.08.2015 00:45 14,0 C 98 % 1020,2 hPa 0,0 l/m 0,0 km/h (0 Bft) NO 53 0 min 0,000 mm 0,0 UV-I 0 W/m 13,7 C 14,0 C 0,0 km/h (0 Bft) 0,00 %
20.08.2015 00:50 14,0 C 98 % 1020,1 hPa 0,0 l/m 0,0 km/h (0 Bft) NO 36 0 min 0,000 mm 0,0 UV-I 0 W/m 13,7 C 14,0 C 0,0 km/h (0 Bft) 0,00 %
20.08.2015 00:55 14,0 C 98 % 1020,1 hPa 0,0 l/m 0,0 km/h (0 Bft) NO 36 0 min 0,000 mm 0,0 UV-I 0 W/m 13,7 C 14,0 C 0,0 km/h (0 Bft) 0,00 %
20.08.2015 01:00 14,0 C 98 % 1020,0 hPa 0,0 l/m 0,0 km/h (0 Bft) NO 36 0 min 0,000 mm 0,0 UV-I 0 W/m 13,7 C 14,0 C 0,0 km/h (0 Bft) 0,00 %
20.08.2015 01:05 14,0 C 98 % 1020,0 hPa 0,0 l/m 0,0 km/h (0 Bft) NO 39 0 min 0,000 mm 0,0 UV-I 0 W/m 13,7 C 14,0 C 0,0 km/h (0 Bft) 0,00 %
20.08.2015 01:10 14,0 C 98 % 1020,2 hPa 0,0 l/m 0,0 km/h (0 Bft) NO 38 0 min 0,000 mm 0,0 UV-I 0 W/m 13,7 C 14,0 C 0,0 km/h (0 Bft) 0,00 %
20.08.2015 01:15 14,0 C 98 % 1020,0 hPa 0,0 l/m 0,0 km/h (0 Bft) NO 41 0 min 0,000 mm 0,0 UV-I 0 W/m 13,7 C 14,0 C 0,0 km/h (0 Bft) 0,00 %
20.08.2015 01:20 14,0 C 98 % 1020,1 hPa 0,0 l/m 0,0 km/h (0 Bft) NO 56 0 min 0,000 mm 0,0 UV-I 0 W/m 13,7 C 14,0 C 0,0 km/h (0 Bft) 0,00 %
20.08.2015 01:25 14,1 C 98 % 1020,2 hPa 0,0 l/m 0,0 km/h (0 Bft) NW 325 0 min 0,000 mm 0,0 UV-I 0 W/m 13,8 C 14,1 C 0,0 km/h (0 Bft) 0,00 %
20.08.2015 01:30 14,1 C 98 % 1020,2 hPa 0,0 l/m 0,0 km/h (0 Bft) NO 46 0 min 0,000 mm 0,0 UV-I 0 W/m 13,8 C 14,1 C 0,0 km/h (0 Bft) 0,00 %
20.08.2015 01:35 14,1 C 99 % 1020,3 hPa 0,0 l/m 0,0 km/h (0 Bft) NO 47 0 min 0,000 mm 0,0 UV-I 0 W/m 13,9 C 14,1 C 0,0 km/h (0 Bft) 0,00 %
20.08.2015 01:40 14,1 C 99 % 1020,2 hPa 0,0 l/m 0,0 km/h (0 Bft) NO 55 0 min 0,000 mm 0,0 UV-I 0 W/m 13,9 C 14,1 C 0,0 km/h (0 Bft) 0,00 %
20.08.2015 01:45 14,1 C 99 % 1020,2 hPa 0,0 l/m 0,0 km/h (0 Bft) NO 34 0 min 0,000 mm 0,0 UV-I 0 W/m 13,9 C 14,1 C 0,0 km/h (0 Bft) 0,00 %
20.08.2015 01:50 14,1 C 99 % 1020,3 hPa 0,0 l/m 0,0 km/h (0 Bft) N-NO 32 0 min 0,000 mm 0,0 UV-I 0 W/m 13,9 C 14,1 C 0,0 km/h (0 Bft) 0,00 %
20.08.2015 01:55 14,1 C 99 % 1020,2 hPa 0,0 l/m 0,0 km/h (0 Bft) N-NO 26 0 min 0,000 mm 0,0 UV-I 0 W/m 13,9 C 14,1 C 0,0 km/h (0 Bft) 0,00 %
20.08.2015 02:00 14,1 C 99 % 1020,2 hPa 0,0 l/m 0,0 km/h (0 Bft) NO 56 0 min 0,000 mm 0,0 UV-I 0 W/m 13,9 C 14,1 C 0,0 km/h (0 Bft) 0,00 %
20.08.2015 02:05 14,1 C 99 % 1020,3 hPa 0,0 l/m 0,0 km/h (0 Bft) NO 39 0 min 0,000 mm 0,0 UV-I 0 W/m 13,9 C 14,1 C 0,0 km/h (0 Bft) 0,00 %
20.08.2015 02:10 14,1 C 99 % 1020,2 hPa 0,0 l/m 0,0 km/h (0 Bft) S-SW 208 0 min 0,000 mm 0,0 UV-I 0 W/m 13,9 C 14,1 C 0,0 km/h (0 Bft) 0,00 %
20.08.2015 02:15 14,1 C 99 % 1020,2 hPa 0,0 l/m 0,0 km/h (0 Bft) S-SW 208 0 min 0,000 mm 0,0 UV-I 0 W/m 13,9 C 14,1 C 0,0 km/h (0 Bft) 0,00 %
20.08.2015 02:20 14,1 C 99 % 1020,2 hPa 0,0 l/m 0,0 km/h (0 Bft) NO 37 0 min 0,000 mm 0,0 UV-I 0 W/m 13,9 C 14,1 C 0,0 km/h (0 Bft) 0,00 %
20.08.2015 02:25 14,1 C 99 % 1020,3 hPa 0,0 l/m 0,0 km/h (0 Bft) NO 41 0 min 0,000 mm 0,0 UV-I 0 W/m 13,9 C 14,1 C 0,0 km/h (0 Bft) 0,00 %
20.08.2015 02:30 14,1 C 99 % 1020,3 hPa 0,0 l/m 0,0 km/h (0 Bft) NO 41 0 min 0,000 mm 0,0 UV-I 0 W/m 13,9 C 14,1 C 0,0 km/h (0 Bft) 0,00 %
20.08.2015 02:35 14,1 C 99 % 1020,4 hPa 0,0 l/m 0,0 km/h (0 Bft) NO 52 0 min 0,000 mm 0,0 UV-I 0 W/m 13,9 C 14,1 C 0,0 km/h (0 Bft) 0,00 %
20.08.2015 02:40 14,2 C 99 % 1020,3 hPa 0,0 l/m 0,0 km/h (0 Bft) NW 318 0 min 0,000 mm 0,0 UV-I 0 W/m 14,0 C 14,2 C 0,0 km/h (0 Bft) 0,00 %
20.08.2015 02:45 14,2 C 99 % 1020,4 hPa 0,0 l/m 0,0 km/h (0 Bft) W-SW 256 0 min 0,000 mm 0,0 UV-I 0 W/m 14,0 C 14,2 C 0,0 km/h (0 Bft) 0,00 %
20.08.2015 02:50 14,2 C 99 % 1020,4 hPa 0,0 l/m 0,0 km/h (0 Bft) NO 35 0 min 0,000 mm 0,0 UV-I 0 W/m 14,0 C 14,2 C 0,0 km/h (0 Bft) 0,00 %
20.08.2015 02:55 14,2 C 99 % 1020,3 hPa 0,0 l/m 0,0 km/h (0 Bft) NO 42 0 min 0,000 mm 0,0 UV-I 0 W/m 14,0 C 14,2 C 0,0 km/h (0 Bft) 0,00 %
20.08.2015 03:00 14,2 C 99 % 1020,5 hPa 0,0 l/m 0,0 km/h (0 Bft) N 349 0 min 0,000 mm 0,0 UV-I 0 W/m 14,0 C 14,2 C 0,0 km/h (0 Bft) 0,00 %
20.08.2015 03:05 14,2 C 99 % 1020,4 hPa 0,0 l/m 0,0 km/h (0 Bft) N 7 0 min 0,000 mm 0,0 UV-I 0 W/m 14,0 C 14,2 C 0,0 km/h (0 Bft) 0,00 %
20.08.2015 03:10 14,2 C 99 % 1020,4 hPa 0,0 l/m 0,0 km/h (0 Bft) NO 44 0 min 0,000 mm 0,0 UV-I 0 W/m 14,0 C 14,2 C 0,0 km/h (0 Bft) 0,00 %
20.08.2015 03:15 14,2 C 99 % 1020,4 hPa 0,0 l/m 0,0 km/h (0 Bft) N-NO 14 0 min 0,000 mm 0,0 UV-I 0 W/m 14,0 C 14,2 C 0,0 km/h (0 Bft) 0,00 %
20.08.2015 03:20 14,2 C 99 % 1020,2 hPa 0,0 l/m 0,4 km/h (0 Bft) N-NW 335 0 min 0,000 mm 0,0 UV-I 0 W/m 14,0 C 14,2 C 4,0 km/h (1 Bft) 0,00 %
20.08.2015 03:25 14,2 C 99 % 1020,4 hPa 0,0 l/m 0,0 km/h (0 Bft) NO 47 0 min 0,000 mm 0,0 UV-I 0 W/m 14,0 C 14,2 C 0,0 km/h (0 Bft) 0,00 %
20.08.2015 03:30 14,2 C 99 % 1020,4 hPa 0,0 l/m 0,0 km/h (0 Bft) NO 48 0 min 0,000 mm 0,0 UV-I 0 W/m 14,0 C 14,2 C 0,0 km/h (0 Bft) 0,00 %
20.08.2015 03:35 14,2 C 99 % 1020,3 hPa 0,0 l/m 0,0 km/h (0 Bft) N-NW 334 0 min 0,000 mm 0,0 UV-I 0 W/m 14,0 C 14,2 C 0,0 km/h (0 Bft) 0,00 %
20.08.2015 03:40 14,2 C 99 % 1020,3 hPa 0,0 l/m 0,0 km/h (0 Bft) N-NO 25 0 min 0,000 mm 0,0 UV-I 0 W/m 14,0 C 14,2 C 0,0 km/h (0 Bft) 0,00 %
20.08.2015 03:45 14,2 C 99 % 1020,5 hPa 0,0 l/m 0,0 km/h (0 Bft) N-NW 346 0 min 0,000 mm 0,0 UV-I 0 W/m 14,0 C 14,2 C 0,0 km/h (0 Bft) 0,00 %
20.08.2015 03:50 14,2 C 99 % 1020,6 hPa 0,0 l/m 0,0 km/h (0 Bft) NO 44 0 min 0,000 mm 0,0 UV-I 0 W/m 14,0 C 14,2 C 0,0 km/h (0 Bft) 0,00 %
20.08.2015 03:55 14,2 C 99 % 1020,4 hPa 0,0 l/m 0,0 km/h (0 Bft) N-NO 21 0 min 0,000 mm 0,0 UV-I 0 W/m 14,0 C 14,2 C 0,0 km/h (0 Bft) 0,00 %
20.08.2015 04:00 14,2 C 99 % 1020,2 hPa 0,0 l/m 0,0 km/h (0 Bft) O-NO 68 0 min 0,000 mm 0,0 UV-I 0 W/m 14,0 C 14,2 C 0,0 km/h (0 Bft) 0,00 %
20.08.2015 04:05 14,2 C 99 % 1020,4 hPa 0,0 l/m 0,0 km/h (0 Bft) NO 42 0 min 0,000 mm 0,0 UV-I 0 W/m 14,0 C 14,2 C 0,0 km/h (0 Bft) 0,00 %
20.08.2015 04:10 14,2 C 99 % 1020,2 hPa 0,0 l/m 0,0 km/h (0 Bft) NO 36 0 min 0,000 mm 0,0 UV-I 0 W/m 14,0 C 14,2 C 0,0 km/h (0 Bft) 0,00 %
20.08.2015 04:15 14,2 C 99 % 1020,3 hPa 0,0 l/m 0,0 km/h (0 Bft) NO 40 0 min 0,000 mm 0,0 UV-I 0 W/m 14,0 C 14,2 C 0,0 km/h (0 Bft) 0,00 %
20.08.2015 04:20 14,2 C 99 % 1020,3 hPa 0,0 l/m 0,0 km/h (0 Bft) W-SW 256 0 min 0,000 mm 0,0 UV-I 0 W/m 14,0 C 14,2 C 0,0 km/h (0 Bft) 0,00 %
20.08.2015 04:25 14,2 C 99 % 1020,4 hPa 0,0 l/m 0,0 km/h (0 Bft) NW 321 0 min 0,000 mm 0,0 UV-I 0 W/m 14,0 C 14,2 C 0,0 km/h (0 Bft) 0,00 %
20.08.2015 04:30 14,2 C 99 % 1020,3 hPa 0,0 l/m 0,4 km/h (0 Bft) NW 317 0 min 0,000 mm 0,0 UV-I 0 W/m 14,0 C 14,2 C 4,0 km/h (1 Bft) 0,00 %
20.08.2015 04:35 14,2 C 99 % 1020,5 hPa 0,0 l/m 0,0 km/h (0 Bft) NW 305 0 min 0,000 mm 0,0 UV-I 0 W/m 14,0 C 14,2 C 0,0 km/h (0 Bft) 0,00 %
20.08.2015 04:40 14,3 C 99 % 1020,5 hPa 0,0 l/m 0,0 km/h (0 Bft) N 355 0 min 0,000 mm 0,0 UV-I 0 W/m 14,1 C 14,3 C 0,0 km/h (0 Bft) 0,00 %
20.08.2015 04:45 14,2 C 99 % 1020,4 hPa 0,0 l/m 0,0 km/h (0 Bft) N 357 0 min 0,000 mm 0,0 UV-I 0 W/m 14,0 C 14,2 C 0,0 km/h (0 Bft) 0,00 %
20.08.2015 04:50 14,2 C 99 % 1020,5 hPa 0,0 l/m 0,7 km/h (0 Bft) N-NW 337 0 min 0,000 mm 0,0 UV-I 0 W/m 14,0 C 14,2 C 4,0 km/h (1 Bft) 0,00 %
20.08.2015 04:55 14,2 C 99 % 1020,4 hPa 0,0 l/m 0,0 km/h (0 Bft) N 349 0 min 0,000 mm 0,0 UV-I 0 W/m 14,0 C 14,2 C 0,0 km/h (0 Bft) 0,00 %
20.08.2015 05:00 14,2 C 99 % 1020,5 hPa 0,0 l/m 0,0 km/h (0 Bft) N-NO 32 0 min 0,000 mm 0,0 UV-I 0 W/m 14,0 C 14,2 C 0,0 km/h (0 Bft) 0,00 %
20.08.2015 05:05 14,2 C 99 % 1020,6 hPa 0,0 l/m 0,0 km/h (0 Bft) N-NW 344 0 min 0,000 mm 0,0 UV-I 0 W/m 14,0 C 14,2 C 0,0 km/h (0 Bft) 0,00 %
20.08.2015 05:10 14,2 C 99 % 1020,5 hPa 0,0 l/m 0,0 km/h (0 Bft) N-NO 19 0 min 0,000 mm 0,0 UV-I 0 W/m 14,0 C 14,2 C 0,0 km/h (0 Bft) 0,00 %
20.08.2015 05:15 14,2 C 99 % 1020,6 hPa 0,0 l/m 0,0 km/h (0 Bft) NO 42 0 min 0,000 mm 0,0 UV-I 0 W/m 14,0 C 14,2 C 0,0 km/h (0 Bft) 0,00 %
20.08.2015 05:20 14,2 C 99 % 1020,5 hPa 0,0 l/m 0,0 km/h (0 Bft) NO 41 0 min 0,000 mm 0,0 UV-I 0 W/m 14,0 C 14,2 C 0,0 km/h (0 Bft) 0,00 %
20.08.2015 05:25 14,2 C 99 % 1020,6 hPa 0,0 l/m 0,0 km/h (0 Bft) N-NW 338 0 min 0,000 mm 0,0 UV-I 0 W/m 14,0 C 14,2 C 0,0 km/h (0 Bft) 0,00 %
20.08.2015 05:30 14,2 C 99 % 1020,8 hPa 0,0 l/m 0,0 km/h (0 Bft) NO 36 0 min 0,000 mm 0,0 UV-I 0 W/m 14,0 C 14,2 C 0,0 km/h (0 Bft) 0,00 %
20.08.2015 05:35 14,2 C 99 % 1020,7 hPa 0,0 l/m 0,0 km/h (0 Bft) N-NW 341 0 min 0,000 mm 0,0 UV-I 0 W/m 14,0 C 14,2 C 0,0 km/h (0 Bft) 0,00 %
20.08.2015 05:40 14,2 C 99 % 1020,8 hPa 0,0 l/m 0,0 km/h (0 Bft) N-NO 27 0 min 0,000 mm 0,0 UV-I 0 W/m 14,0 C 14,2 C 0,0 km/h (0 Bft) 0,00 %
20.08.2015 05:45 14,2 C 99 % 1021,0 hPa 0,0 l/m 0,0 km/h (0 Bft) NO 35 0 min 0,000 mm 0,0 UV-I 0 W/m 14,0 C 14,2 C 0,0 km/h (0 Bft) 0,00 %
20.08.2015 05:50 14,2 C 99 % 1020,8 hPa 0,0 l/m 0,0 km/h (0 Bft) NO 56 0 min 0,000 mm 0,0 UV-I 0 W/m 14,0 C 14,2 C 0,0 km/h (0 Bft) 0,00 %
20.08.2015 05:55 14,3 C 99 % 1020,9 hPa 0,0 l/m 0,0 km/h (0 Bft) NW 317 0 min 0,000 mm 0,0 UV-I 0 W/m 14,1 C 14,3 C 0,0 km/h (0 Bft) 0,00 %
20.08.2015 06:00 14,3 C 99 % 1021,0 hPa 0,0 l/m 0,0 km/h (0 Bft) N 356 0 min 0,000 mm 0,0 UV-I 0 W/m 14,1 C 14,3 C 0,0 km/h (0 Bft) 0,00 %
20.08.2015 06:05 14,3 C 99 % 1020,9 hPa 0,0 l/m 0,0 km/h (0 Bft) NO 50 0 min 0,000 mm 0,0 UV-I 0 W/m 14,1 C 14,3 C 0,0 km/h (0 Bft) 0,00 %
20.08.2015 06:10 14,3 C 99 % 1021,0 hPa 0,0 l/m 0,0 km/h (0 Bft) N-NO 19 0 min 0,000 mm 0,0 UV-I 0 W/m 14,1 C 14,3 C 0,0 km/h (0 Bft) 0,00 %
20.08.2015 06:15 14,3 C 99 % 1021,2 hPa 0,0 l/m 0,0 km/h (0 Bft) N 357 0 min 0,000 mm 0,0 UV-I 0 W/m 14,1 C 14,3 C 0,0 km/h (0 Bft) 0,00 %
20.08.2015 06:20 14,3 C 99 % 1021,2 hPa 0,0 l/m 0,0 km/h (0 Bft) N-NW 330 0 min 0,000 mm 0,0 UV-I 0 W/m 14,1 C 14,3 C 0,0 km/h (0 Bft) 0,00 %
20.08.2015 06:25 14,3 C 99 % 1021,2 hPa 0,0 l/m 0,0 km/h (0 Bft) N 357 0 min 0,000 mm 0,0 UV-I 0 W/m 14,1 C 14,3 C 0,0 km/h (0 Bft) 0,00 %
20.08.2015 06:30 14,2 C 99 % 1021,4 hPa 0,0 l/m 0,0 km/h (0 Bft) N-NW 342 0 min 0,000 mm 0,0 UV-I 3 W/m 14,0 C 14,2 C 0,0 km/h (0 Bft) 0,00 %
20.08.2015 06:35 14,2 C 99 % 1021,4 hPa 0,0 l/m 0,0 km/h (0 Bft) NO 39 0 min 0,000 mm 0,0 UV-I 4 W/m 14,0 C 14,2 C 0,0 km/h (0 Bft) 0,00 %
20.08.2015 06:40 14,2 C 99 % 1021,3 hPa 0,0 l/m 0,0 km/h (0 Bft) N 351 0 min 0,000 mm 0,0 UV-I 5 W/m 14,0 C 14,2 C 0,0 km/h (0 Bft) 0,00 %
20.08.2015 06:45 14,2 C 99 % 1021,4 hPa 0,0 l/m 0,0 km/h (0 Bft) N 6 0 min 0,000 mm 0,0 UV-I 5 W/m 14,0 C 14,2 C 0,0 km/h (0 Bft) 0,00 %
20.08.2015 06:50 14,2 C 99 % 1021,3 hPa 0,0 l/m 0,0 km/h (0 Bft) N-NO 31 0 min 0,000 mm 0,0 UV-I 9 W/m 14,0 C 14,2 C 0,0 km/h (0 Bft) 0,00 %
20.08.2015 06:55 14,2 C 99 % 1021,4 hPa 0,0 l/m 0,0 km/h (0 Bft) NO 47 0 min 0,000 mm 0,0 UV-I 16 W/m 14,0 C 14,2 C 0,0 km/h (0 Bft) 0,00 %
20.08.2015 07:00 14,2 C 99 % 1021,4 hPa 0,0 l/m 0,0 km/h (0 Bft) N 350 0 min 0,000 mm 0,0 UV-I 19 W/m 14,0 C 14,2 C 0,0 km/h (0 Bft) 0,00 %
20.08.2015 07:05 14,1 C 99 % 1021,5 hPa 0,0 l/m 0,4 km/h (0 Bft) W-SW 256 0 min 0,000 mm 0,0 UV-I 20 W/m 13,9 C 14,1 C 4,0 km/h (1 Bft) 0,00 %
20.08.2015 07:10 14,1 C 99 % 1021,6 hPa 0,0 l/m 0,0 km/h (0 Bft) NO 34 0 min 0,000 mm 0,0 UV-I 24 W/m 13,9 C 14,1 C 0,0 km/h (0 Bft) 0,00 %
20.08.2015 07:15 14,1 C 99 % 1021,5 hPa 0,0 l/m 0,0 km/h (0 Bft) O-NO 72 0 min 0,000 mm 0,0 UV-I 27 W/m 13,9 C 14,1 C 0,0 km/h (0 Bft) 0,00 %
20.08.2015 07:20 14,1 C 99 % 1021,5 hPa 0,0 l/m 0,4 km/h (0 Bft) N 349 0 min 0,000 mm 0,0 UV-I 41 W/m 13,9 C 14,1 C 4,0 km/h (1 Bft) 0,00 %
20.08.2015 07:25 14,1 C 99 % 1021,7 hPa 0,0 l/m 0,0 km/h (0 Bft) N-NW 330 0 min 0,000 mm 0,0 UV-I 44 W/m 13,9 C 14,1 C 0,0 km/h (0 Bft) 0,00 %
20.08.2015 07:30 14,1 C 99 % 1021,7 hPa 0,0 l/m 0,7 km/h (0 Bft) N 358 0 min 0,000 mm 0,0 UV-I 46 W/m 13,9 C 14,1 C 4,0 km/h (1 Bft) 0,00 %
20.08.2015 07:35 14,2 C 99 % 1021,7 hPa 0,0 l/m 0,7 km/h (0 Bft) W-NW 286 0 min 0,000 mm 0,0 UV-I 49 W/m 14,0 C 14,2 C 4,0 km/h (1 Bft) 0,00 %
20.08.2015 07:40 14,2 C 99 % 1021,6 hPa 0,0 l/m 0,7 km/h (0 Bft) N-NO 27 0 min 0,000 mm 0,0 UV-I 54 W/m 14,0 C 14,2 C 4,0 km/h (1 Bft) 0,00 %
20.08.2015 07:45 14,2 C 99 % 1021,7 hPa 0,0 l/m 0,0 km/h (0 Bft) NO 42 0 min 0,000 mm 0,0 UV-I 64 W/m 14,0 C 14,2 C 0,0 km/h (0 Bft) 0,00 %
20.08.2015 07:50 14,2 C 99 % 1021,7 hPa 0,0 l/m 0,0 km/h (0 Bft) NO 47 0 min 0,000 mm 0,0 UV-I 73 W/m 14,0 C 14,2 C 0,0 km/h (0 Bft) 0,00 %
20.08.2015 07:55 14,3 C 99 % 1021,9 hPa 0,0 l/m 0,4 km/h (0 Bft) N-NW 335 0 min 0,000 mm 0,0 UV-I 80 W/m 14,1 C 14,3 C 4,0 km/h (1 Bft) 0,00 %
20.08.2015 08:00 14,3 C 99 % 1022,0 hPa 0,0 l/m 0,0 km/h (0 Bft) NO 49 0 min 0,000 mm 0,0 UV-I 86 W/m 14,1 C 14,3 C 0,0 km/h (0 Bft) 0,00 %
20.08.2015 08:05 14,4 C 99 % 1021,9 hPa 0,0 l/m 2,9 km/h (1 Bft) W-SW 255 0 min 0,000 mm 0,0 UV-I 94 W/m 14,2 C 14,4 C 4,0 km/h (1 Bft) 0,00 %
20.08.2015 08:10 14,4 C 99 % 1022,1 hPa 0,0 l/m 0,0 km/h (0 Bft) N 355 0 min 0,000 mm 1,0 UV-I 107 W/m 14,2 C 14,4 C 0,0 km/h (0 Bft) 0,00 %
20.08.2015 08:15 14,5 C 99 % 1022,0 hPa 0,0 l/m 2,2 km/h (1 Bft) NW 315 0 min 0,000 mm 1,0 UV-I 126 W/m 14,3 C 14,5 C 4,0 km/h (1 Bft) 0,00 %
20.08.2015 08:20 14,6 C 99 % 1022,1 hPa 0,0 l/m 0,7 km/h (0 Bft) W-NW 293 0 min 0,000 mm 1,0 UV-I 127 W/m 14,4 C 14,6 C 4,0 km/h (1 Bft) 0,00 %
20.08.2015 08:25 14,7 C 98 % 1022,1 hPa 0,0 l/m 0,0 km/h (0 Bft) N-NW 343 0 min 0,000 mm 1,0 UV-I 132 W/m 14,4 C 14,7 C 0,0 km/h (0 Bft) 0,00 %
20.08.2015 08:30 14,8 C 97 % 1022,1 hPa 0,0 l/m 4,0 km/h (1 Bft) W-SW 252 0 min 0,000 mm 1,0 UV-I 150 W/m 14,3 C 14,8 C 7,9 km/h (2 Bft) 0,00 %
20.08.2015 08:35 15,0 C 97 % 1022,2 hPa 0,0 l/m 0,0 km/h (0 Bft) W-SW 255 0 min 0,000 mm 1,0 UV-I 153 W/m 14,5 C 15,0 C 0,0 km/h (0 Bft) 0,00 %
20.08.2015 08:40 15,1 C 96 % 1022,3 hPa 0,0 l/m 0,0 km/h (0 Bft) N 351 0 min 0,000 mm 1,0 UV-I 169 W/m 14,5 C 15,1 C 0,0 km/h (0 Bft) 0,00 %
20.08.2015 08:45 15,2 C 95 % 1022,3 hPa 0,0 l/m 0,0 km/h (0 Bft) O-NO 60 0 min 0,000 mm 1,0 UV-I 171 W/m 14,4 C 15,2 C 0,0 km/h (0 Bft) 0,00 %
20.08.2015 08:50 15,2 C 94 % 1022,3 hPa 0,0 l/m 0,0 km/h (0 Bft) N-NO 27 0 min 0,000 mm 1,0 UV-I 177 W/m 14,2 C 15,2 C 0,0 km/h (0 Bft) 0,00 %
20.08.2015 08:55 15,3 C 93 % 1022,3 hPa 0,0 l/m 0,0 km/h (0 Bft) NO 34 0 min 0,000 mm 1,0 UV-I 157 W/m 14,2 C 15,3 C 0,0 km/h (0 Bft) 0,00 %
20.08.2015 09:00 15,4 C 92 % 1022,5 hPa 0,0 l/m 0,0 km/h (0 Bft) N-NO 32 0 min 0,000 mm 1,0 UV-I 139 W/m 14,1 C 15,4 C 0,0 km/h (0 Bft) 0,00 %
20.08.2015 09:05 15,5 C 92 % 1022,3 hPa 0,0 l/m 0,0 km/h (0 Bft) N-NO 22 0 min 0,000 mm 1,0 UV-I 118 W/m 14,2 C 15,5 C 0,0 km/h (0 Bft) 0,00 %
20.08.2015 09:10 15,6 C 91 % 1022,4 hPa 0,0 l/m 0,7 km/h (0 Bft) W 262 0 min 0,000 mm 1,0 UV-I 124 W/m 14,1 C 15,6 C 4,0 km/h (1 Bft) 0,00 %
20.08.2015 09:15 15,5 C 91 % 1022,6 hPa 0,0 l/m 0,0 km/h (0 Bft) NO 39 0 min 0,000 mm 1,0 UV-I 130 W/m 14,0 C 15,5 C 0,0 km/h (0 Bft) 0,00 %
20.08.2015 09:20 15,5 C 91 % 1022,6 hPa 0,0 l/m 0,0 km/h (0 Bft) W 274 0 min 0,000 mm 1,0 UV-I 133 W/m 14,0 C 15,5 C 0,0 km/h (0 Bft) 0,00 %
20.08.2015 09:25 15,6 C 90 % 1022,5 hPa 0,0 l/m 0,0 km/h (0 Bft) N-NO 25 0 min 0,000 mm 1,0 UV-I 141 W/m 14,0 C 15,6 C 0,0 km/h (0 Bft) 0,00 %
20.08.2015 09:30 15,6 C 90 % 1022,6 hPa 0,0 l/m 1,8 km/h (1 Bft) W-SW 256 0 min 0,000 mm 1,0 UV-I 127 W/m 14,0 C 15,6 C 4,0 km/h (1 Bft) 0,00 %
20.08.2015 09:35 15,6 C 89 % 1022,6 hPa 0,0 l/m 0,0 km/h (0 Bft) NW 312 0 min 0,000 mm 1,0 UV-I 107 W/m 13,8 C 15,6 C 0,0 km/h (0 Bft) 0,00 %
20.08.2015 09:40 15,6 C 89 % 1022,6 hPa 0,0 l/m 0,7 km/h (0 Bft) N-NW 327 0 min 0,000 mm 1,0 UV-I 118 W/m 13,8 C 15,6 C 4,0 km/h (1 Bft) 0,00 %
20.08.2015 09:45 15,6 C 89 % 1022,6 hPa 0,0 l/m 0,7 km/h (0 Bft) NW 318 0 min 0,000 mm 1,0 UV-I 158 W/m 13,8 C 15,6 C 4,0 km/h (1 Bft) 0,00 %
20.08.2015 09:50 15,6 C 90 % 1022,5 hPa 0,0 l/m 2,9 km/h (1 Bft) W-SW 256 0 min 0,000 mm 1,0 UV-I 176 W/m 14,0 C 15,6 C 4,0 km/h (1 Bft) 0,00 %
20.08.2015 09:55 15,7 C 90 % 1022,7 hPa 0,0 l/m 0,0 km/h (0 Bft) W-SW 257 0 min 0,000 mm 1,0 UV-I 174 W/m 14,1 C 15,7 C 0,0 km/h (0 Bft) 0,00 %
20.08.2015 10:00 15,9 C 89 % 1022,7 hPa 0,0 l/m 1,4 km/h (1 Bft) NW 313 0 min 0,000 mm 1,0 UV-I 151 W/m 14,1 C 15,9 C 4,0 km/h (1 Bft) 0,00 %
20.08.2015 10:05 15,9 C 88 % 1022,7 hPa 0,0 l/m 0,0 km/h (0 Bft) N 352 0 min 0,000 mm 1,0 UV-I 136 W/m 13,9 C 15,9 C 0,0 km/h (0 Bft) 0,00 %
20.08.2015 10:10 16,0 C 88 % 1022,6 hPa 0,0 l/m 0,0 km/h (0 Bft) N-NO 12 0 min 0,000 mm 1,0 UV-I 143 W/m 14,0 C 16,0 C 0,0 km/h (0 Bft) 0,00 %
20.08.2015 10:15 16,0 C 87 % 1022,8 hPa 0,0 l/m 0,0 km/h (0 Bft) NO 37 0 min 0,000 mm 1,0 UV-I 119 W/m 13,8 C 16,0 C 0,0 km/h (0 Bft) 0,00 %
20.08.2015 10:20 16,0 C 87 % 1022,7 hPa 0,0 l/m 4,0 km/h (1 Bft) W 266 0 min 0,000 mm 1,0 UV-I 119 W/m 13,8 C 16,0 C 4,0 km/h (1 Bft) 0,00 %
20.08.2015 10:25 16,0 C 87 % 1022,6 hPa 0,0 l/m 0,7 km/h (0 Bft) N-NW 339 0 min 0,000 mm 1,0 UV-I 127 W/m 13,8 C 16,0 C 4,0 km/h (1 Bft) 0,00 %
20.08.2015 10:30 16,0 C 87 % 1022,7 hPa 0,0 l/m 0,0 km/h (0 Bft) NO 40 0 min 0,000 mm 1,0 UV-I 165 W/m 13,8 C 16,0 C 0,0 km/h (0 Bft) 0,00 %
20.08.2015 10:35 16,1 C 87 % 1022,8 hPa 0,0 l/m 3,2 km/h (1 Bft) W-SW 256 0 min 0,000 mm 1,0 UV-I 160 W/m 13,9 C 16,1 C 4,0 km/h (1 Bft) 0,00 %
20.08.2015 10:40 16,2 C 87 % 1022,8 hPa 0,0 l/m 0,4 km/h (0 Bft) O-SO 108 0 min 0,000 mm 1,0 UV-I 208 W/m 14,0 C 16,2 C 4,0 km/h (1 Bft) 0,00 %
20.08.2015 10:45 16,3 C 85 % 1022,9 hPa 0,0 l/m 0,4 km/h (0 Bft) NW 319 0 min 0,000 mm 1,0 UV-I 260 W/m 13,8 C 16,3 C 4,0 km/h (1 Bft) 0,00 %
20.08.2015 10:50 16,5 C 84 % 1022,8 hPa 0,0 l/m 0,0 km/h (0 Bft) N-NO 27 0 min 0,000 mm 1,0 UV-I 303 W/m 13,8 C 16,5 C 0,0 km/h (0 Bft) 0,00 %
20.08.2015 10:55 16,7 C 84 % 1023,0 hPa 0,0 l/m 1,4 km/h (1 Bft) NW 317 0 min 0,000 mm 1,0 UV-I 300 W/m 14,0 C 16,7 C 4,0 km/h (1 Bft) 0,00 %
20.08.2015 11:00 17,0 C 83 % 1022,8 hPa 0,0 l/m 0,0 km/h (0 Bft) N-NO 33 0 min 0,000 mm 1,0 UV-I 288 W/m 14,1 C 17,0 C 0,0 km/h (0 Bft) 0,00 %
20.08.2015 11:05 17,2 C 82 % 1022,8 hPa 0,0 l/m 0,0 km/h (0 Bft) NW 318 0 min 0,000 mm 1,0 UV-I 321 W/m 14,1 C 17,2 C 0,0 km/h (0 Bft) 0,00 %
20.08.2015 11:10 17,3 C 81 % 1022,9 hPa 0,0 l/m 1,4 km/h (1 Bft) W-NW 282 0 min 0,000 mm 1,0 UV-I 307 W/m 14,0 C 17,3 C 4,0 km/h (1 Bft) 0,00 %
20.08.2015 11:15 17,5 C 79 % 1022,9 hPa 0,0 l/m 1,4 km/h (1 Bft) W-NW 303 0 min 0,000 mm 1,0 UV-I 284 W/m 13,8 C 17,5 C 4,0 km/h (1 Bft) 0,00 %
20.08.2015 11:20 17,6 C 79 % 1022,8 hPa 0,0 l/m 0,0 km/h (0 Bft) NO 53 0 min 0,000 mm 2,0 UV-I 362 W/m 13,9 C 17,6 C 0,0 km/h (0 Bft) 0,00 %
20.08.2015 11:25 17,7 C 78 % 1022,7 hPa 0,0 l/m 4,3 km/h (1 Bft) N-NO 23 0 min 0,000 mm 2,0 UV-I 407 W/m 13,8 C 17,7 C 7,9 km/h (2 Bft) 0,00 %
20.08.2015 11:30 17,9 C 76 % 1022,7 hPa 0,0 l/m 0,0 km/h (0 Bft) NW 321 0 min 0,000 mm 2,0 UV-I 387 W/m 13,6 C 17,9 C 0,0 km/h (0 Bft) 0,00 %
20.08.2015 11:35 18,1 C 76 % 1023,0 hPa 0,0 l/m 0,4 km/h (0 Bft) N-NW 346 0 min 0,000 mm 2,0 UV-I 356 W/m 13,8 C 18,1 C 4,0 km/h (1 Bft) 0,00 %
20.08.2015 11:40 18,1 C 76 % 1022,9 hPa 0,0 l/m 1,8 km/h (1 Bft) W-NW 288 0 min 0,000 mm 2,0 UV-I 371 W/m 13,8 C 18,1 C 4,0 km/h (1 Bft) 0,00 %
20.08.2015 11:45 18,0 C 76 % 1022,8 hPa 0,0 l/m 0,0 km/h (0 Bft) NO 35 0 min 0,000 mm 2,0 UV-I 372 W/m 13,7 C 18,0 C 0,0 km/h (0 Bft) 0,00 %
20.08.2015 11:50 18,1 C 75 % 1023,0 hPa 0,0 l/m 1,4 km/h (1 Bft) NW 325 0 min 0,000 mm 2,0 UV-I 365 W/m 13,6 C 18,1 C 4,0 km/h (1 Bft) 0,00 %
20.08.2015 11:55 18,2 C 75 % 1022,9 hPa 0,0 l/m 0,0 km/h (0 Bft) N-NW 345 0 min 0,000 mm 2,0 UV-I 372 W/m 13,7 C 18,2 C 0,0 km/h (0 Bft) 0,00 %
20.08.2015 12:00 18,2 C 75 % 1022,9 hPa 0,0 l/m 0,7 km/h (0 Bft) N 351 0 min 0,000 mm 2,0 UV-I 382 W/m 13,7 C 18,2 C 4,0 km/h (1 Bft) 0,00 %
20.08.2015 12:05 18,2 C 75 % 1022,9 hPa 0,0 l/m 0,4 km/h (0 Bft) N-NW 337 0 min 0,000 mm 2,0 UV-I 385 W/m 13,7 C 18,2 C 4,0 km/h (1 Bft) 0,00 %
20.08.2015 12:10 18,1 C 73 % 1023,0 hPa 0,0 l/m 2,9 km/h (1 Bft) N 349 0 min 0,000 mm 2,0 UV-I 384 W/m 13,2 C 18,1 C 7,9 km/h (2 Bft) 0,00 %
20.08.2015 12:15 17,9 C 74 % 1022,7 hPa 0,0 l/m 0,0 km/h (0 Bft) SO 140 0 min 0,000 mm 2,0 UV-I 378 W/m 13,2 C 17,9 C 0,0 km/h (0 Bft) 0,00 %
20.08.2015 12:20 18,1 C 75 % 1022,9 hPa 0,0 l/m 1,4 km/h (1 Bft) SW 225 0 min 0,000 mm 2,0 UV-I 380 W/m 13,6 C 18,1 C 4,0 km/h (1 Bft) 0,00 %
20.08.2015 12:25 18,4 C 74 % 1022,9 hPa 0,0 l/m 4,0 km/h (1 Bft) W 267 0 min 0,000 mm 2,0 UV-I 370 W/m 13,7 C 18,4 C 7,9 km/h (2 Bft) 0,00 %
20.08.2015 12:30 18,6 C 74 % 1022,9 hPa 0,0 l/m 0,0 km/h (0 Bft) NO 44 0 min 0,000 mm 2,0 UV-I 376 W/m 13,9 C 18,6 C 0,0 km/h (0 Bft) 0,00 %
20.08.2015 12:35 18,7 C 73 % 1023,0 hPa 0,0 l/m 1,8 km/h (1 Bft) W-SW 256 0 min 0,000 mm 2,0 UV-I 386 W/m 13,8 C 18,7 C 4,0 km/h (1 Bft) 0,00 %
20.08.2015 12:40 18,8 C 75 % 1023,0 hPa 0,0 l/m 0,4 km/h (0 Bft) O-NO 58 0 min 0,000 mm 2,0 UV-I 376 W/m 14,3 C 18,8 C 4,0 km/h (1 Bft) 0,00 %
20.08.2015 12:45 18,7 C 75 % 1023,1 hPa 0,0 l/m 0,0 km/h (0 Bft) N-NW 345 0 min 0,000 mm 1,0 UV-I 259 W/m 14,2 C 18,7 C 0,0 km/h (0 Bft) 0,00 %
20.08.2015 12:50 18,5 C 76 % 1023,0 hPa 0,0 l/m 0,0 km/h (0 Bft) N-NO 24 0 min 0,000 mm 1,0 UV-I 291 W/m 14,2 C 18,5 C 0,0 km/h (0 Bft) 0,00 %
20.08.2015 12:55 18,5 C 74 % 1023,2 hPa 0,0 l/m 1,4 km/h (1 Bft) W 271 0 min 0,000 mm 1,0 UV-I 301 W/m 13,8 C 18,5 C 4,0 km/h (1 Bft) 0,00 %
20.08.2015 13:00 18,5 C 74 % 1022,9 hPa 0,0 l/m 0,7 km/h (0 Bft) W-SW 258 0 min 0,000 mm 1,0 UV-I 310 W/m 13,8 C 18,5 C 4,0 km/h (1 Bft) 0,00 %
20.08.2015 13:05 18,6 C 73 % 1023,0 hPa 0,0 l/m 0,0 km/h (0 Bft) NO 45 0 min 0,000 mm 1,0 UV-I 315 W/m 13,7 C 18,6 C 0,0 km/h (0 Bft) 0,00 %
20.08.2015 13:10 18,8 C 73 % 1023,1 hPa 0,0 l/m 5,4 km/h (1 Bft) NW 326 0 min 0,000 mm 1,0 UV-I 294 W/m 13,9 C 18,8 C 7,9 km/h (2 Bft) 0,00 %
20.08.2015 13:15 18,8 C 71 % 1023,1 hPa 0,0 l/m 0,0 km/h (0 Bft) NO 46 0 min 0,000 mm 1,0 UV-I 321 W/m 13,4 C 18,8 C 0,0 km/h (0 Bft) 0,00 %
20.08.2015 13:20 18,9 C 71 % 1023,0 hPa 0,0 l/m 6,5 km/h (2 Bft) W-SW 256 0 min 0,000 mm 2,0 UV-I 332 W/m 13,5 C 18,9 C 7,9 km/h (2 Bft) 0,00 %
20.08.2015 13:25 19,0 C 71 % 1023,0 hPa 0,0 l/m 0,0 km/h (0 Bft) O-NO 64 0 min 0,000 mm 1,0 UV-I 286 W/m 13,6 C 19,0 C 0,0 km/h (0 Bft) 0,00 %
20.08.2015 13:30 18,9 C 72 % 1023,2 hPa 0,0 l/m 1,4 km/h (1 Bft) NW 315 0 min 0,000 mm 1,0 UV-I 275 W/m 13,7 C 18,9 C 4,0 km/h (1 Bft) 0,00 %
20.08.2015 13:35 18,8 C 72 % 1023,0 hPa 0,0 l/m 0,0 km/h (0 Bft) N-NW 343 0 min 0,000 mm 1,0 UV-I 257 W/m 13,6 C 18,8 C 0,0 km/h (0 Bft) 0,00 %
20.08.2015 13:40 18,8 C 72 % 1023,1 hPa 0,0 l/m 2,9 km/h (1 Bft) N-NW 339 0 min 0,000 mm 1,0 UV-I 281 W/m 13,6 C 18,8 C 7,9 km/h (2 Bft) 0,00 %
20.08.2015 13:45 18,7 C 72 % 1023,4 hPa 0,0 l/m 0,4 km/h (0 Bft) NO 53 0 min 0,000 mm 1,0 UV-I 302 W/m 13,5 C 18,7 C 4,0 km/h (1 Bft) 0,00 %
20.08.2015 13:50 18,7 C 72 % 1023,2 hPa 0,0 l/m 2,2 km/h (1 Bft) W-SW 256 0 min 0,000 mm 1,0 UV-I 318 W/m 13,5 C 18,7 C 4,0 km/h (1 Bft) 0,00 %
20.08.2015 13:55 18,9 C 70 % 1023,1 hPa 0,0 l/m 0,0 km/h (0 Bft) N-NW 327 0 min 0,000 mm 2,0 UV-I 368 W/m 13,3 C 18,9 C 0,0 km/h (0 Bft) 0,00 %
20.08.2015 14:00 19,0 C 70 % 1023,0 hPa 0,0 l/m 0,0 km/h (0 Bft) NW 324 0 min 0,000 mm 2,0 UV-I 385 W/m 13,4 C 19,0 C 0,0 km/h (0 Bft) 0,00 %
20.08.2015 14:05 19,2 C 69 % 1023,2 hPa 0,0 l/m 0,0 km/h (0 Bft) O-NO 65 0 min 0,000 mm 2,0 UV-I 392 W/m 13,4 C 19,2 C 0,0 km/h (0 Bft) 0,00 %
20.08.2015 14:10 19,3 C 68 % 1023,0 hPa 0,0 l/m 0,0 km/h (0 Bft) NO 35 0 min 0,000 mm 2,0 UV-I 408 W/m 13,2 C 19,3 C 0,0 km/h (0 Bft) 0,00 %
20.08.2015 14:15 19,4 C 68 % 1023,2 hPa 0,0 l/m 2,9 km/h (1 Bft) O-SO 118 0 min 0,000 mm 2,0 UV-I 379 W/m 13,3 C 19,4 C 7,9 km/h (2 Bft) 0,00 %
20.08.2015 14:20 19,5 C 67 % 1023,1 hPa 0,0 l/m 7,9 km/h (2 Bft) W-SW 255 0 min 0,000 mm 2,0 UV-I 373 W/m 13,2 C 18,9 C 11,9 km/h (2 Bft) 0,00 %
20.08.2015 14:25 19,6 C 66 % 1023,1 hPa 0,0 l/m 0,7 km/h (0 Bft) N-NO 28 0 min 0,000 mm 2,0 UV-I 401 W/m 13,1 C 19,6 C 4,0 km/h (1 Bft) 0,00 %
20.08.2015 14:30 19,7 C 65 % 1023,0 hPa 0,0 l/m 4,0 km/h (1 Bft) W 271 0 min 0,000 mm 2,0 UV-I 366 W/m 12,9 C 19,7 C 7,9 km/h (2 Bft) 0,00 %
20.08.2015 14:35 19,8 C 66 % 1023,2 hPa 0,0 l/m 4,0 km/h (1 Bft) N-NW 330 0 min 0,000 mm 2,0 UV-I 361 W/m 13,3 C 19,8 C 7,9 km/h (2 Bft) 0,00 %
20.08.2015 14:40 19,8 C 65 % 1023,1 hPa 0,0 l/m 0,0 km/h (0 Bft) N 355 0 min 0,000 mm 2,0 UV-I 356 W/m 13,0 C 19,8 C 0,0 km/h (0 Bft) 0,00 %
20.08.2015 14:45 19,9 C 63 % 1023,0 hPa 0,0 l/m 0,7 km/h (0 Bft) N-NW 337 0 min 0,000 mm 2,0 UV-I 340 W/m 12,6 C 19,9 C 4,0 km/h (1 Bft) 0,00 %
20.08.2015 14:50 20,0 C 64 % 1023,1 hPa 0,0 l/m 5,8 km/h (2 Bft) W-SW 256 0 min 0,000 mm 2,0 UV-I 364 W/m 13,0 C 20,0 C 11,9 km/h (2 Bft) 0,00 %
20.08.2015 14:56 20,0 C 65 % 1022,7 hPa 0,0 l/m 0,0 km/h (0 Bft) O-NO 70 6 min 0,000 mm 2,0 UV-I 490 W/m 13,2 C 20,0 C 0,0 km/h (0 Bft) 0,00 %
20.08.2015 15:01 20,0 C 64 % 1022,8 hPa 0,0 l/m 1,4 km/h (1 Bft) NW 321 0 min 0,000 mm 1,0 UV-I 376 W/m 13,0 C 20,0 C 4,0 km/h (1 Bft) 0,00 %
20.08.2015 15:06 20,1 C 64 % 1022,9 hPa 0,0 l/m 0,7 km/h (0 Bft) NO 52 0 min 0,000 mm 1,0 UV-I 234 W/m 13,1 C 20,1 C 4,0 km/h (1 Bft) 0,00 %
20.08.2015 15:11 19,9 C 66 % 1022,9 hPa 0,0 l/m 0,4 km/h (0 Bft) N 353 0 min 0,000 mm 1,0 UV-I 192 W/m 13,4 C 19,9 C 4,0 km/h (1 Bft) 0,00 %
20.08.2015 15:16 19,6 C 67 % 1023,0 hPa 0,0 l/m 0,7 km/h (0 Bft) W-SW 252 0 min 0,000 mm 1,0 UV-I 162 W/m 13,3 C 19,6 C 4,0 km/h (1 Bft) 0,00 %
20.08.2015 15:21 19,3 C 66 % 1022,9 hPa 0,0 l/m 0,0 km/h (0 Bft) N-NO 17 0 min 0,000 mm 1,0 UV-I 149 W/m 12,8 C 19,3 C 0,0 km/h (0 Bft) 0,00 %
20.08.2015 15:26 19,2 C 66 % 1022,9 hPa 0,0 l/m 1,4 km/h (1 Bft) N-NO 16 0 min 0,000 mm 1,0 UV-I 158 W/m 12,7 C 19,2 C 4,0 km/h (1 Bft) 0,00 %
20.08.2015 15:31 19,0 C 68 % 1023,0 hPa 0,0 l/m 0,0 km/h (0 Bft) NO 36 0 min 0,000 mm 1,0 UV-I 211 W/m 13,0 C 19,0 C 0,0 km/h (0 Bft) 0,00 %
20.08.2015 15:36 18,9 C 67 % 1022,7 hPa 0,0 l/m 0,0 km/h (0 Bft) N-NW 346 0 min 0,000 mm 1,0 UV-I 302 W/m 12,6 C 18,9 C 0,0 km/h (0 Bft) 0,00 %
20.08.2015 15:41 19,0 C 66 % 1022,9 hPa 0,0 l/m 0,0 km/h (0 Bft) NO 36 0 min 0,000 mm 1,0 UV-I 295 W/m 12,5 C 19,0 C 0,0 km/h (0 Bft) 0,00 %
20.08.2015 15:46 19,2 C 67 % 1022,9 hPa 0,0 l/m 0,0 km/h (0 Bft) N-NW 338 0 min 0,000 mm 1,0 UV-I 273 W/m 12,9 C 19,2 C 0,0 km/h (0 Bft) 0,00 %
20.08.2015 15:51 19,4 C 66 % 1022,8 hPa 0,0 l/m 0,0 km/h (0 Bft) N-NW 347 0 min 0,000 mm 1,0 UV-I 269 W/m 12,9 C 19,4 C 0,0 km/h (0 Bft) 0,00 %
20.08.2015 15:56 19,5 C 66 % 1022,7 hPa 0,0 l/m 0,0 km/h (0 Bft) O-NO 72 0 min 0,000 mm 1,0 UV-I 249 W/m 13,0 C 19,5 C 0,0 km/h (0 Bft) 0,00 %
20.08.2015 16:01 19,6 C 66 % 1022,6 hPa 0,0 l/m 0,0 km/h (0 Bft) NO 44 0 min 0,000 mm 1,0 UV-I 222 W/m 13,1 C 19,6 C 0,0 km/h (0 Bft) 0,00 %
20.08.2015 16:06 19,5 C 66 % 1022,7 hPa 0,0 l/m 0,4 km/h (0 Bft) NW 326 0 min 0,000 mm 1,0 UV-I 214 W/m 13,0 C 19,5 C 4,0 km/h (1 Bft) 0,00 %
20.08.2015 16:11 19,6 C 67 % 1022,5 hPa 0,0 l/m 0,0 km/h (0 Bft) NO 37 0 min 0,000 mm 1,0 UV-I 202 W/m 13,3 C 19,6 C 0,0 km/h (0 Bft) 0,00 %
20.08.2015 16:16 19,6 C 68 % 1022,4 hPa 0,0 l/m 0,0 km/h (0 Bft) N-NW 341 0 min 0,000 mm 1,0 UV-I 193 W/m 13,5 C 19,6 C 0,0 km/h (0 Bft) 0,00 %
20.08.2015 16:21 19,7 C 67 % 1022,6 hPa 0,0 l/m 0,0 km/h (0 Bft) N-NO 15 0 min 0,000 mm 1,0 UV-I 189 W/m 13,4 C 19,7 C 0,0 km/h (0 Bft) 0,00 %
20.08.2015 16:26 19,6 C 68 % 1022,5 hPa 0,0 l/m 0,0 km/h (0 Bft) N-NO 31 0 min 0,000 mm 1,0 UV-I 206 W/m 13,5 C 19,6 C 0,0 km/h (0 Bft) 0,00 %
20.08.2015 16:31 19,5 C 69 % 1022,4 hPa 0,0 l/m 0,0 km/h (0 Bft) NO 40 0 min 0,000 mm 1,0 UV-I 241 W/m 13,7 C 19,5 C 0,0 km/h (0 Bft) 0,00 %
20.08.2015 16:36 19,4 C 69 % 1022,5 hPa 0,0 l/m 0,0 km/h (0 Bft) N 349 0 min 0,000 mm 1,0 UV-I 234 W/m 13,6 C 19,4 C 0,0 km/h (0 Bft) 0,00 %
20.08.2015 16:41 19,4 C 68 % 1022,1 hPa 0,0 l/m 0,0 km/h (0 Bft) NW 323 0 min 0,000 mm 1,0 UV-I 228 W/m 13,3 C 19,4 C 0,0 km/h (0 Bft) 0,00 %
20.08.2015 16:46 19,5 C 67 % 1022,3 hPa 0,0 l/m 0,0 km/h (0 Bft) NO 45 0 min 0,000 mm 1,0 UV-I 180 W/m 13,2 C 19,5 C 0,0 km/h (0 Bft) 0,00 %
20.08.2015 16:51 19,7 C 66 % 1022,2 hPa 0,0 l/m 0,0 km/h (0 Bft) N-NO 27 0 min 0,000 mm 1,0 UV-I 144 W/m 13,2 C 19,7 C 0,0 km/h (0 Bft) 0,00 %
20.08.2015 16:56 19,8 C 65 % 1022,4 hPa 0,0 l/m 0,0 km/h (0 Bft) N 351 0 min 0,000 mm 1,0 UV-I 120 W/m 13,0 C 19,8 C 0,0 km/h (0 Bft) 0,00 %
20.08.2015 17:01 19,8 C 65 % 1022,4 hPa 0,0 l/m 0,0 km/h (0 Bft) N-NW 340 0 min 0,000 mm 1,0 UV-I 104 W/m 13,0 C 19,8 C 0,0 km/h (0 Bft) 0,00 %
20.08.2015 17:06 19,6 C 66 % 1022,3 hPa 0,0 l/m 0,0 km/h (0 Bft) O-NO 76 0 min 0,000 mm 0,0 UV-I 80 W/m 13,1 C 19,6 C 0,0 km/h (0 Bft) 0,00 %
20.08.2015 17:11 19,4 C 67 % 1022,2 hPa 0,0 l/m 0,0 km/h (0 Bft) NO 35 0 min 0,000 mm 0,0 UV-I 51 W/m 13,1 C 19,4 C 0,0 km/h (0 Bft) 0,00 %
20.08.2015 17:16 19,2 C 68 % 1022,2 hPa 0,0 l/m 0,0 km/h (0 Bft) N 1 0 min 0,000 mm 0,0 UV-I 27 W/m 13,1 C 19,2 C 0,0 km/h (0 Bft) 0,00 %
20.08.2015 17:21 19,0 C 71 % 1022,7 hPa 0,0 l/m 4,0 km/h (1 Bft) N-NW 332 0 min 0,000 mm 0,0 UV-I 11 W/m 13,6 C 19,0 C 7,9 km/h (2 Bft) 0,00 %
20.08.2015 17:26 18,5 C 74 % 1022,9 hPa 0,0 l/m 2,9 km/h (1 Bft) NW 317 0 min 0,000 mm 0,0 UV-I 19 W/m 13,8 C 18,5 C 7,9 km/h (2 Bft) 0,00 %
20.08.2015 17:31 17,8 C 80 % 1022,8 hPa 0,0 l/m 0,0 km/h (0 Bft) N 349 0 min 0,000 mm 0,0 UV-I 33 W/m 14,3 C 17,8 C 0,0 km/h (0 Bft) 0,00 %
20.08.2015 17:36 16,7 C 84 % 1022,8 hPa 0,0 l/m 0,0 km/h (0 Bft) NO 51 0 min 0,000 mm 0,0 UV-I 39 W/m 14,0 C 16,7 C 0,0 km/h (0 Bft) 0,00 %
20.08.2015 17:41 15,8 C 86 % 1022,9 hPa 0,0 l/m 0,0 km/h (0 Bft) NO 43 0 min 0,000 mm 0,0 UV-I 36 W/m 13,5 C 15,8 C 0,0 km/h (0 Bft) 0,00 %
20.08.2015 17:46 15,3 C 87 % 1022,7 hPa 0,0 l/m 0,7 km/h (0 Bft) O-NO 58 0 min 0,000 mm 0,0 UV-I 46 W/m 13,1 C 15,3 C 4,0 km/h (1 Bft) 0,00 %
20.08.2015 17:51 15,0 C 88 % 1022,6 hPa 0,0 l/m 0,0 km/h (0 Bft) O-NO 66 0 min 0,000 mm 0,0 UV-I 44 W/m 13,0 C 15,0 C 0,0 km/h (0 Bft) 0,00 %
20.08.2015 17:56 15,0 C 90 % 1022,9 hPa 1,2 l/m 0,0 km/h (0 Bft) O-SO 115 0 min 0,000 mm 0,0 UV-I 33 W/m 13,4 C 15,0 C 0,0 km/h (0 Bft) 0,00 %
20.08.2015 18:01 15,3 C 92 % 1022,8 hPa 3,3 l/m 0,0 km/h (0 Bft) O-NO 69 0 min 0,000 mm 0,0 UV-I 28 W/m 14,0 C 15,3 C 0,0 km/h (0 Bft) 0,00 %
20.08.2015 18:06 15,8 C 93 % 1022,5 hPa 0,0 l/m 0,0 km/h (0 Bft) O-SO 105 0 min 0,000 mm 0,0 UV-I 26 W/m 14,7 C 15,8 C 0,0 km/h (0 Bft) 0,00 %
20.08.2015 18:11 15,7 C 92 % 1022,7 hPa 0,0 l/m 0,0 km/h (0 Bft) NO 46 0 min 0,000 mm 0,0 UV-I 23 W/m 14,4 C 15,7 C 0,0 km/h (0 Bft) 0,00 %
20.08.2015 18:16 15,3 C 92 % 1022,7 hPa 0,0 l/m 0,0 km/h (0 Bft) O 83 0 min 0,000 mm 0,0 UV-I 24 W/m 14,0 C 15,3 C 0,0 km/h (0 Bft) 0,00 %
20.08.2015 18:21 15,1 C 93 % 1022,7 hPa 0,0 l/m 0,0 km/h (0 Bft) O-NO 67 0 min 0,000 mm 0,0 UV-I 28 W/m 14,0 C 15,1 C 0,0 km/h (0 Bft) 0,00 %
20.08.2015 18:26 14,9 C 93 % 1022,6 hPa 0,0 l/m 0,0 km/h (0 Bft) NO 52 0 min 0,000 mm 0,0 UV-I 30 W/m 13,8 C 14,9 C 0,0 km/h (0 Bft) 0,00 %
20.08.2015 18:31 14,8 C 93 % 1022,9 hPa 0,0 l/m 0,0 km/h (0 Bft) O-NO 57 0 min 0,000 mm 0,0 UV-I 31 W/m 13,7 C 14,8 C 0,0 km/h (0 Bft) 0,00 %
20.08.2015 18:36 14,8 C 93 % 1022,7 hPa 0,0 l/m 0,0 km/h (0 Bft) O-SO 103 0 min 0,000 mm 0,0 UV-I 31 W/m 13,7 C 14,8 C 0,0 km/h (0 Bft) 0,00 %
20.08.2015 18:41 14,8 C 94 % 1022,8 hPa 0,0 l/m 0,0 km/h (0 Bft) NO 46 0 min 0,000 mm 0,0 UV-I 31 W/m 13,8 C 14,8 C 0,0 km/h (0 Bft) 0,00 %
20.08.2015 18:46 14,8 C 94 % 1023,1 hPa 0,0 l/m 0,0 km/h (0 Bft) O-NO 57 0 min 0,000 mm 0,0 UV-I 30 W/m 13,8 C 14,8 C 0,0 km/h (0 Bft) 0,00 %
20.08.2015 18:51 14,9 C 94 % 1023,1 hPa 0,0 l/m 0,0 km/h (0 Bft) NO 48 0 min 0,000 mm 0,0 UV-I 29 W/m 13,9 C 14,9 C 0,0 km/h (0 Bft) 0,00 %
20.08.2015 18:56 14,9 C 94 % 1022,9 hPa 0,0 l/m 0,0 km/h (0 Bft) O-NO 70 0 min 0,000 mm 0,0 UV-I 30 W/m 13,9 C 14,9 C 0,0 km/h (0 Bft) 0,00 %
20.08.2015 19:01 15,0 C 94 % 1022,9 hPa 0,0 l/m 0,0 km/h (0 Bft) O-NO 59 0 min 0,000 mm 0,0 UV-I 36 W/m 14,0 C 15,0 C 0,0 km/h (0 Bft) 0,00 %
20.08.2015 19:06 15,0 C 94 % 1023,1 hPa 0,0 l/m 0,0 km/h (0 Bft) O-NO 63 0 min 0,000 mm 0,0 UV-I 37 W/m 14,0 C 15,0 C 0,0 km/h (0 Bft) 0,00 %
20.08.2015 19:11 15,1 C 95 % 1022,9 hPa 0,0 l/m 0,0 km/h (0 Bft) O-NO 65 0 min 0,000 mm 0,0 UV-I 36 W/m 14,3 C 15,1 C 0,0 km/h (0 Bft) 0,00 %
20.08.2015 19:16 15,1 C 95 % 1023,0 hPa 0,0 l/m 0,0 km/h (0 Bft) NO 46 0 min 0,000 mm 0,0 UV-I 33 W/m 14,3 C 15,1 C 0,0 km/h (0 Bft) 0,00 %
20.08.2015 19:21 15,2 C 95 % 1023,1 hPa 0,0 l/m 0,0 km/h (0 Bft) NO 51 0 min 0,000 mm 0,0 UV-I 28 W/m 14,4 C 15,2 C 0,0 km/h (0 Bft) 0,00 %
20.08.2015 19:26 15,2 C 95 % 1023,1 hPa 0,0 l/m 0,0 km/h (0 Bft) O-NO 67 0 min 0,000 mm 0,0 UV-I 22 W/m 14,4 C 15,2 C 0,0 km/h (0 Bft) 0,00 %
20.08.2015 19:31 15,2 C 95 % 1023,1 hPa 0,0 l/m 0,0 km/h (0 Bft) NO 52 0 min 0,000 mm 0,0 UV-I 17 W/m 14,4 C 15,2 C 0,0 km/h (0 Bft) 0,00 %
20.08.2015 19:36 15,1 C 95 % 1023,1 hPa 0,0 l/m 0,0 km/h (0 Bft) O-NO 66 0 min 0,000 mm 0,0 UV-I 8 W/m 14,3 C 15,1 C 0,0 km/h (0 Bft) 0,00 %
20.08.2015 19:41 15,1 C 96 % 1023,2 hPa 0,0 l/m 0,0 km/h (0 Bft) O-SO 114 0 min 0,000 mm 0,0 UV-I 5 W/m 14,5 C 15,1 C 0,0 km/h (0 Bft) 0,00 %
20.08.2015 19:46 15,1 C 96 % 1023,4 hPa 0,0 l/m 0,0 km/h (0 Bft) NO 50 0 min 0,000 mm 0,0 UV-I 0 W/m 14,5 C 15,1 C 0,0 km/h (0 Bft) 0,00 %
20.08.2015 19:51 15,1 C 96 % 1023,4 hPa 0,0 l/m 0,0 km/h (0 Bft) NO 36 0 min 0,000 mm 0,0 UV-I 0 W/m 14,5 C 15,1 C 0,0 km/h (0 Bft) 0,00 %
20.08.2015 19:56 15,1 C 96 % 1023,3 hPa 0,0 l/m 0,0 km/h (0 Bft) NO 40 0 min 0,000 mm 0,0 UV-I 0 W/m 14,5 C 15,1 C 0,0 km/h (0 Bft) 0,00 %
20.08.2015 20:01 15,1 C 96 % 1023,3 hPa 0,0 l/m 0,0 km/h (0 Bft) O-NO 57 0 min 0,000 mm 0,0 UV-I 0 W/m 14,5 C 15,1 C 0,0 km/h (0 Bft) 0,00 %
20.08.2015 20:06 15,1 C 96 % 1023,4 hPa 0,0 l/m 0,0 km/h (0 Bft) O-NO 64 0 min 0,000 mm 0,0 UV-I 0 W/m 14,5 C 15,1 C 0,0 km/h (0 Bft) 0,00 %
20.08.2015 20:11 15,1 C 97 % 1023,4 hPa 0,0 l/m 0,0 km/h (0 Bft) O-NO 59 0 min 0,000 mm 0,0 UV-I 0 W/m 14,6 C 15,1 C 0,0 km/h (0 Bft) 0,00 %
20.08.2015 20:16 15,1 C 97 % 1023,4 hPa 0,0 l/m 0,0 km/h (0 Bft) NO 38 0 min 0,000 mm 0,0 UV-I 0 W/m 14,6 C 15,1 C 0,0 km/h (0 Bft) 0,00 %
20.08.2015 20:21 15,1 C 97 % 1023,4 hPa 0,0 l/m 0,0 km/h (0 Bft) NO 38 0 min 0,000 mm 0,0 UV-I 0 W/m 14,6 C 15,1 C 0,0 km/h (0 Bft) 0,00 %
20.08.2015 20:26 15,0 C 97 % 1023,4 hPa 0,0 l/m 0,0 km/h (0 Bft) NO 38 0 min 0,000 mm 0,0 UV-I 0 W/m 14,5 C 15,0 C 0,0 km/h (0 Bft) 0,00 %
20.08.2015 20:31 15,0 C 98 % 1023,4 hPa 0,0 l/m 0,0 km/h (0 Bft) NO 38 0 min 0,000 mm 0,0 UV-I 0 W/m 14,7 C 15,0 C 0,0 km/h (0 Bft) 0,00 %
20.08.2015 20:36 14,9 C 98 % 1023,6 hPa 0,0 l/m 0,0 km/h (0 Bft) NO 39 0 min 0,000 mm 0,0 UV-I 0 W/m 14,6 C 14,9 C 0,0 km/h (0 Bft) 0,00 %
20.08.2015 20:41 14,8 C 98 % 1023,7 hPa 0,0 l/m 0,0 km/h (0 Bft) NO 55 0 min 0,000 mm 0,0 UV-I 0 W/m 14,5 C 14,8 C 0,0 km/h (0 Bft) 0,00 %
20.08.2015 20:46 14,7 C 98 % 1023,9 hPa 0,0 l/m 0,0 km/h (0 Bft) O-NO 61 0 min 0,000 mm 0,0 UV-I 0 W/m 14,4 C 14,7 C 0,0 km/h (0 Bft) 0,00 %
20.08.2015 20:51 14,6 C 98 % 1023,9 hPa 0,0 l/m 0,0 km/h (0 Bft) O-NO 66 0 min 0,000 mm 0,0 UV-I 0 W/m 14,3 C 14,6 C 0,0 km/h (0 Bft) 0,00 %
20.08.2015 20:56 14,6 C 98 % 1023,8 hPa 0,0 l/m 0,0 km/h (0 Bft) O-NO 76 0 min 0,000 mm 0,0 UV-I 0 W/m 14,3 C 14,6 C 0,0 km/h (0 Bft) 0,00 %
20.08.2015 21:01 14,6 C 98 % 1024,0 hPa 0,0 l/m 0,0 km/h (0 Bft) NO 55 0 min 0,000 mm 0,0 UV-I 0 W/m 14,3 C 14,6 C 0,0 km/h (0 Bft) 0,00 %
20.08.2015 21:06 14,6 C 98 % 1023,8 hPa 0,0 l/m 0,0 km/h (0 Bft) NO 55 0 min 0,000 mm 0,0 UV-I 0 W/m 14,3 C 14,6 C 0,0 km/h (0 Bft) 0,00 %
20.08.2015 21:11 14,5 C 98 % 1023,8 hPa 0,0 l/m 0,0 km/h (0 Bft) NO 55 0 min 0,000 mm 0,0 UV-I 0 W/m 14,2 C 14,5 C 0,0 km/h (0 Bft) 0,00 %
20.08.2015 21:16 14,5 C 98 % 1024,0 hPa 0,0 l/m 0,0 km/h (0 Bft) NO 55 0 min 0,000 mm 0,0 UV-I 0 W/m 14,2 C 14,5 C 0,0 km/h (0 Bft) 0,00 %
20.08.2015 21:21 14,5 C 98 % 1024,1 hPa 0,0 l/m 0,0 km/h (0 Bft) NO 48 0 min 0,000 mm 0,0 UV-I 0 W/m 14,2 C 14,5 C 0,0 km/h (0 Bft) 0,00 %
20.08.2015 21:26 14,4 C 98 % 1024,0 hPa 0,0 l/m 0,0 km/h (0 Bft) NO 48 0 min 0,000 mm 0,0 UV-I 0 W/m 14,1 C 14,4 C 0,0 km/h (0 Bft) 0,00 %
20.08.2015 21:31 14,4 C 99 % 1023,9 hPa 0,0 l/m 0,0 km/h (0 Bft) NO 48 0 min 0,000 mm 0,0 UV-I 0 W/m 14,2 C 14,4 C 0,0 km/h (0 Bft) 0,00 %
20.08.2015 21:36 14,3 C 99 % 1024,1 hPa 0,0 l/m 0,0 km/h (0 Bft) NO 35 0 min 0,000 mm 0,0 UV-I 0 W/m 14,1 C 14,3 C 0,0 km/h (0 Bft) 0,00 %
20.08.2015 21:41 14,4 C 99 % 1024,3 hPa 0,0 l/m 0,0 km/h (0 Bft) NO 52 0 min 0,000 mm 0,0 UV-I 0 W/m 14,2 C 14,4 C 0,0 km/h (0 Bft) 0,00 %
20.08.2015 21:46 14,4 C 99 % 1024,2 hPa 0,0 l/m 0,0 km/h (0 Bft) N-NO 32 0 min 0,000 mm 0,0 UV-I 0 W/m 14,2 C 14,4 C 0,0 km/h (0 Bft) 0,00 %
20.08.2015 21:51 14,5 C 99 % 1024,4 hPa 0,0 l/m 0,0 km/h (0 Bft) NO 42 0 min 0,000 mm 0,0 UV-I 0 W/m 14,3 C 14,5 C 0,0 km/h (0 Bft) 0,00 %
20.08.2015 21:56 14,5 C 99 % 1024,5 hPa 0,0 l/m 0,0 km/h (0 Bft) N-NO 32 0 min 0,000 mm 0,0 UV-I 0 W/m 14,3 C 14,5 C 0,0 km/h (0 Bft) 0,00 %
20.08.2015 22:01 14,5 C 99 % 1024,2 hPa 0,0 l/m 0,0 km/h (0 Bft) NO 38 0 min 0,000 mm 0,0 UV-I 0 W/m 14,3 C 14,5 C 0,0 km/h (0 Bft) 0,00 %
20.08.2015 22:06 14,5 C 99 % 1024,2 hPa 0,0 l/m 0,0 km/h (0 Bft) NO 45 0 min 0,000 mm 0,0 UV-I 0 W/m 14,3 C 14,5 C 0,0 km/h (0 Bft) 0,00 %
20.08.2015 22:11 14,5 C 99 % 1024,5 hPa 0,0 l/m 0,0 km/h (0 Bft) NO 37 0 min 0,000 mm 0,0 UV-I 0 W/m 14,3 C 14,5 C 0,0 km/h (0 Bft) 0,00 %
20.08.2015 22:16 14,5 C 99 % 1024,4 hPa 0,0 l/m 0,0 km/h (0 Bft) NO 37 0 min 0,000 mm 0,0 UV-I 0 W/m 14,3 C 14,5 C 0,0 km/h (0 Bft) 0,00 %
20.08.2015 22:21 14,5 C 99 % 1024,2 hPa 0,0 l/m 0,0 km/h (0 Bft) NO 37 0 min 0,000 mm 0,0 UV-I 0 W/m 14,3 C 14,5 C 0,0 km/h (0 Bft) 0,00 %
20.08.2015 22:26 14,5 C 99 % 1024,3 hPa 0,0 l/m 0,0 km/h (0 Bft) NO 37 0 min 0,000 mm 0,0 UV-I 0 W/m 14,3 C 14,5 C 0,0 km/h (0 Bft) 0,00 %
20.08.2015 22:31 14,5 C 99 % 1024,3 hPa 0,0 l/m 0,0 km/h (0 Bft) NO 37 0 min 0,000 mm 0,0 UV-I 0 W/m 14,3 C 14,5 C 0,0 km/h (0 Bft) 0,00 %
20.08.2015 22:36 14,5 C 99 % 1024,3 hPa 0,0 l/m 0,0 km/h (0 Bft) NO 37 0 min 0,000 mm 0,0 UV-I 0 W/m 14,3 C 14,5 C 0,0 km/h (0 Bft) 0,00 %
20.08.2015 22:41 14,4 C 99 % 1024,2 hPa 0,0 l/m 0,0 km/h (0 Bft) NO 37 0 min 0,000 mm 0,0 UV-I 0 W/m 14,2 C 14,4 C 0,0 km/h (0 Bft) 0,00 %
20.08.2015 22:46 14,4 C 99 % 1024,4 hPa 0,0 l/m 0,0 km/h (0 Bft) NO 37 0 min 0,000 mm 0,0 UV-I 0 W/m 14,2 C 14,4 C 0,0 km/h (0 Bft) 0,00 %
20.08.2015 22:51 14,3 C 99 % 1024,5 hPa 0,0 l/m 0,0 km/h (0 Bft) O 79 0 min 0,000 mm 0,0 UV-I 0 W/m 14,1 C 14,3 C 0,0 km/h (0 Bft) 0,00 %
20.08.2015 22:56 14,3 C 99 % 1024,4 hPa 0,0 l/m 0,0 km/h (0 Bft) N 356 0 min 0,000 mm 0,0 UV-I 0 W/m 14,1 C 14,3 C 0,0 km/h (0 Bft) 0,00 %
20.08.2015 23:01 14,2 C 99 % 1024,5 hPa 0,0 l/m 0,0 km/h (0 Bft) W 275 0 min 0,000 mm 0,0 UV-I 0 W/m 14,0 C 14,2 C 0,0 km/h (0 Bft) 0,00 %
20.08.2015 23:06 14,2 C 99 % 1024,5 hPa 0,0 l/m 0,0 km/h (0 Bft) O-NO 64 0 min 0,000 mm 0,0 UV-I 0 W/m 14,0 C 14,2 C 0,0 km/h (0 Bft) 0,00 %
20.08.2015 23:11 14,1 C 99 % 1024,2 hPa 0,0 l/m 0,0 km/h (0 Bft) NO 56 0 min 0,000 mm 0,0 UV-I 0 W/m 13,9 C 14,1 C 0,0 km/h (0 Bft) 0,00 %
20.08.2015 23:16 14,1 C 99 % 1024,5 hPa 0,0 l/m 0,0 km/h (0 Bft) O-NO 57 0 min 0,000 mm 0,0 UV-I 0 W/m 13,9 C 14,1 C 0,0 km/h (0 Bft) 0,00 %
20.08.2015 23:21 14,1 C 99 % 1024,6 hPa 0,0 l/m 0,0 km/h (0 Bft) O-NO 60 0 min 0,000 mm 0,0 UV-I 0 W/m 13,9 C 14,1 C 0,0 km/h (0 Bft) 0,00 %
20.08.2015 23:26 14,1 C 99 % 1024,5 hPa 0,0 l/m 0,0 km/h (0 Bft) O-NO 58 0 min 0,000 mm 0,0 UV-I 0 W/m 13,9 C 14,1 C 0,0 km/h (0 Bft) 0,00 %
20.08.2015 23:31 14,1 C 99 % 1024,5 hPa 0,0 l/m 0,0 km/h (0 Bft) N-NW 329 0 min 0,000 mm 0,0 UV-I 0 W/m 13,9 C 14,1 C 0,0 km/h (0 Bft) 0,00 %
20.08.2015 23:36 14,0 C 99 % 1024,6 hPa 0,0 l/m 0,0 km/h (0 Bft) NW 318 0 min 0,000 mm 0,0 UV-I 0 W/m 13,8 C 14,0 C 0,0 km/h (0 Bft) 0,00 %
20.08.2015 23:41 13,9 C 99 % 1024,7 hPa 0,0 l/m 0,0 km/h (0 Bft) N 354 0 min 0,000 mm 0,0 UV-I 0 W/m 13,7 C 13,9 C 0,0 km/h (0 Bft) 0,00 %
20.08.2015 23:46 13,9 C 99 % 1024,9 hPa 0,0 l/m 0,0 km/h (0 Bft) W-SW 256 0 min 0,000 mm 0,0 UV-I 0 W/m 13,7 C 13,9 C 0,0 km/h (0 Bft) 0,00 %
20.08.2015 23:51 13,8 C 99 % 1024,8 hPa 0,0 l/m 0,0 km/h (0 Bft) NO 47 0 min 0,000 mm 0,0 UV-I 0 W/m 13,6 C 13,8 C 0,0 km/h (0 Bft) 0,00 %
20.08.2015 23:56 13,8 C 99 % 1024,7 hPa 0,0 l/m 3,2 km/h (1 Bft) W-SW 257 0 min 0,000 mm 0,0 UV-I 0 W/m 13,6 C 13,8 C 4,0 km/h (1 Bft) 0,00 %
_ Min-Zeit 23:51 14:45 00:00 - 00:00 - - - - - - 15:41 23:51 00:00 00:00
Minimum _ 13,8 C 63 % 1019,7 hPa - 0,0 km/h (0 Bft) - - - - - - 12,5 C 13,8 C 0,0 km/h (0 Bft) 0,00 %
_ Max-Zeit 15:06 01:35 23:46 18:01 14:20 - - 14:56 00:00 11:20 14:56 20:31 15:06 14:20 00:00
Maximum _ 20,1 C 99 % 1024,9 hPa 3,3 l/m 7,9 km/h
W-SW (2 Bft)
- - 6 min 0,000 mm 2,0 UV-I 490 W/m 14,7 C 20,1 C 11,9 km/h
W-SW (2 Bft)
0,00 %
Durchschnitt _ 15,8 C 89 % 1022,3 hPa #4,5 l/m 0,4 km/h (0 Bft) W-SW - #6 min. #0,000 mm 1,3 UV-I 184 W/m 13,9 C 15,8 C 1,1 km/h (1 Bft) 0,00 %